Hourly Weather Bakau

Today, 16 April, Friday

Time Temperature Precipitation Wind Pressure Humidity
00:00 +25°C° 0 mm 5 mps 757 mmHg 62%
01:00 +25°C° 0 mm 5 mps 757 mmHg 62%
02:00 +25°C° 0 mm 5 mps 756 mmHg 63%
03:00 +25°C° 0 mm 4 mps 756 mmHg 62%
04:00 +23°C° 0 mm 4 mps 756 mmHg 62%
05:00 +23°C° 0 mm 4 mps 756 mmHg 64%
06:00 +25°C° 0 mm 4 mps 757 mmHg 59%
07:00 +26°C° 0 mm 4 mps 757 mmHg 53%
08:00 +27°C° 0 mm 4 mps 758 mmHg 47%
09:00 +29°C° 0 mm 4 mps 758 mmHg 41%
10:00 +32°C° 0 mm 4 mps 757 mmHg 35%
11:00 +34°C° 0 mm 4 mps 757 mmHg 29%
12:00 +35°C° 0 mm 5 mps 757 mmHg 30%
13:00 +35°C° 0 mm 6 mps 756 mmHg 31%
14:00 +35°C° 0 mm 7 mps 755 mmHg 33%
15:00 +33°C° 0 mm 7 mps 755 mmHg 38%
16:00 +32°C° 0 mm 8 mps 755 mmHg 44%
17:00 +29°C° 0 mm 8 mps 755 mmHg 50%
18:00 +28°C° 0 mm 8 mps 755 mmHg 53%
19:00 +27°C° 0 mm 8 mps 756 mmHg 57%
20:00 +26°C° 0 mm 8 mps 756 mmHg 60%
21:00 +26°C° 0 mm 8 mps 756 mmHg 62%
22:00 +24°C° 0 mm 8 mps 757 mmHg 63%
23:00 +24°C° 0 mm 7 mps 757 mmHg 64%

Tomorrow, 17 April, Saturday

Time Temperature Precipitation Wind Pressure Humidity
00:00 +24°C° 0 mm 6 mps 757 mmHg 64%
01:00 +23°C° 0 mm 6 mps 756 mmHg 64%
02:00 +23°C° 0 mm 5 mps 756 mmHg 64%
03:00 +23°C° 0 mm 4 mps 756 mmHg 64%
04:00 +23°C° 0 mm 4 mps 757 mmHg 64%
05:00 +22°C° 0 mm 4 mps 757 mmHg 64%
06:00 +25°C° 0 mm 4 mps 757 mmHg 58%
07:00 +26°C° 0 mm 4 mps 758 mmHg 52%
08:00 +27°C° 0 mm 4 mps 759 mmHg 46%
09:00 +29°C° 0 mm 4 mps 758 mmHg 41%
10:00 +32°C° 0 mm 4 mps 758 mmHg 35%
11:00 +34°C° 0 mm 4 mps 758 mmHg 30%
12:00 +34°C° 0 mm 5 mps 758 mmHg 30%
13:00 +35°C° 0 mm 6 mps 757 mmHg 31%
14:00 +35°C° 0 mm 6 mps 756 mmHg 31%
15:00 +33°C° 0 mm 7 mps 756 mmHg 38%
16:00 +32°C° 0 mm 7 mps 756 mmHg 45%
17:00 +29°C° 0 mm 8 mps 756 mmHg 51%
18:00 +28°C° 0 mm 8 mps 756 mmHg 57%
19:00 +26°C° 0 mm 8 mps 756 mmHg 62%
20:00 +24°C° 0 mm 8 mps 757 mmHg 68%
21:00 +24°C° 0 mm 8 mps 757 mmHg 67%
22:00 +24°C° 0 mm 7 mps 757 mmHg 67%
23:00 +24°C° 0 mm 7 mps 757 mmHg 66%

Day after tomorrow, 18 April, Sunday

Time Temperature Precipitation Wind Pressure Humidity
00:00 +23°C° 0 mm 5 mps 757 mmHg 67%
01:00 +23°C° 0 mm 4 mps 757 mmHg 68%
02:00 +24°C° 0 mm 2 mps 757 mmHg 69%
03:00 +24°C° 0 mm 2 mps 757 mmHg 70%
04:00 +22°C° 0 mm 3 mps 757 mmHg 71%
05:00 +22°C° 0 mm 3 mps 757 mmHg 73%
06:00 +24°C° 0 mm 3 mps 758 mmHg 66%
07:00 +25°C° 0 mm 3 mps 758 mmHg 60%
08:00 +26°C° 0 mm 3 mps 759 mmHg 53%
09:00 +28°C° 0 mm 3 mps 759 mmHg 46%
10:00 +30°C° 0 mm 4 mps 759 mmHg 39%
11:00 +33°C° 0 mm 4 mps 758 mmHg 31%
12:00 +34°C° 0 mm 5 mps 758 mmHg 31%
13:00 +35°C° 0 mm 5 mps 757 mmHg 30%
14:00 +35°C° 0 mm 6 mps 756 mmHg 29%
15:00 +34°C° 0 mm 7 mps 756 mmHg 37%
16:00 +32°C° 0 mm 7 mps 756 mmHg 44%
17:00 +29°C° 0 mm 8 mps 756 mmHg 52%
18:00 +28°C° 0 mm 8 mps 756 mmHg 56%
19:00 +27°C° 0 mm 8 mps 756 mmHg 61%
20:00 +26°C° 0 mm 8 mps 757 mmHg 65%
21:00 +26°C° 0 mm 7 mps 757 mmHg 64%
22:00 +26°C° 0 mm 7 mps 757 mmHg 62%
23:00 +26°C° 0 mm 6 mps 757 mmHg 60%

19 April, Monday

Time Temperature Precipitation Wind Pressure Humidity
00:00 +26°C° 0 mm 5 mps 757 mmHg 59%
01:00 +25°C° 0 mm 4 mps 757 mmHg 58%
02:00 +25°C° 0 mm 3 mps 756 mmHg 56%
03:00 +25°C° 0 mm 2 mps 757 mmHg 57%
04:00 +24°C° 0 mm 2 mps 757 mmHg 58%
05:00 +24°C° 0 mm 1 mps 757 mmHg 59%
06:00 +25°C° 0 mm 1 mps 758 mmHg 52%
07:00 +27°C° 0 mm 2 mps 758 mmHg 45%
08:00 +28°C° 0 mm 2 mps 759 mmHg 38%
09:00 +30°C° 0 mm 3 mps 759 mmHg 33%
10:00 +33°C° 0 mm 3 mps 758 mmHg 29%
11:00 +35°C° 0 mm 4 mps 758 mmHg 24%
12:00 +35°C° 0 mm 5 mps 758 mmHg 25%
13:00 +36°C° 0 mm 6 mps 757 mmHg 26%
14:00 +36°C° 0 mm 7 mps 756 mmHg 27%
15:00 +34°C° 0 mm 7 mps 756 mmHg 34%
16:00 +32°C° 0 mm 8 mps 756 mmHg 41%
17:00 +31°C° 0 mm 8 mps 756 mmHg 49%
18:00 +29°C° 0 mm 8 mps 756 mmHg 52%
19:00 +28°C° 0 mm 8 mps 756 mmHg 56%
20:00 +27°C° 0 mm 8 mps 756 mmHg 59%
21:00 +26°C° 0 mm 7 mps 757 mmHg 61%
22:00 +26°C° 0 mm 7 mps 757 mmHg 62%
23:00 +24°C° 0 mm 6 mps 757 mmHg 63%

20 April, Tuesday

Time Temperature Precipitation Wind Pressure Humidity
00:00 +25°C° 0 mm 5 mps 757 mmHg 65%
01:00 +23°C° 0 mm 4 mps 757 mmHg 68%
02:00 +24°C° 0 mm 2 mps 756 mmHg 70%
03:00 +24°C° 0 mm 3 mps 757 mmHg 73%
04:00 +22°C° 0 mm 3 mps 757 mmHg 75%
05:00 +22°C° 0 mm 3 mps 757 mmHg 78%
06:00 +24°C° 0 mm 3 mps 757 mmHg 70%
07:00 +26°C° 0 mm 3 mps 758 mmHg 61%
08:00 +27°C° 0 mm 3 mps 758 mmHg 53%
09:00 +29°C° 0 mm 3 mps 758 mmHg 46%
10:00 +31°C° 0 mm 3 mps 758 mmHg 39%
11:00 +33°C° 0 mm 3 mps 758 mmHg 33%
12:00 +33°C° 0 mm 4 mps 758 mmHg 34%
13:00 +33°C° 0 mm 5 mps 757 mmHg 35%
14:00 +33°C° 0 mm 6 mps 756 mmHg 37%
15:00 +32°C° 0 mm 7 mps 756 mmHg 42%
16:00 +30°C° 0 mm 7 mps 756 mmHg 48%
17:00 +28°C° 0 mm 7 mps 756 mmHg 53%
18:00 +27°C° 0 mm 8 mps 756 mmHg 60%
19:00 +26°C° 0 mm 8 mps 756 mmHg 66%
20:00 +24°C° 0 mm 8 mps 757 mmHg 73%
21:00 +23°C° 0 mm 8 mps 757 mmHg 74%
22:00 +23°C° 0 mm 8 mps 757 mmHg 76%
23:00 +23°C° 0 mm 8 mps 757 mmHg 77%

21 April, Wednesday

Time Temperature Precipitation Wind Pressure Humidity
00:00 +23°C° 0 mm 7 mps 757 mmHg 78%
01:00 +22°C° 0 mm 6 mps 757 mmHg 79%
02:00 +22°C° 0 mm 6 mps 756 mmHg 80%
03:00 +22°C° 0 mm 5 mps 757 mmHg 82%
04:00 +21°C° 0 mm 4 mps 757 mmHg 83%
05:00 +21°C° 0 mm 4 mps 757 mmHg 85%
06:00 +22°C° 0 mm 4 mps 757 mmHg 78%
07:00 +23°C° 0 mm 4 mps 758 mmHg 71%
08:00 +26°C° 0 mm 3 mps 759 mmHg 64%
09:00 +27°C° 0 mm 3 mps 759 mmHg 56%
10:00 +29°C° 0 mm 3 mps 759 mmHg 49%
11:00 +31°C° 0 mm 3 mps 759 mmHg 41%
12:00 +32°C° 0 mm 4 mps 758 mmHg 42%
13:00 +32°C° 0 mm 5 mps 757 mmHg 43%
14:00 +32°C° 0 mm 6 mps 756 mmHg 44%
15:00 +30°C° 0 mm 6 mps 756 mmHg 48%
16:00 +29°C° 0 mm 6 mps 756 mmHg 53%
17:00 +28°C° 0 mm 6 mps 756 mmHg 58%
18:00 +26°C° 0 mm 6 mps 756 mmHg 64%
19:00 +24°C° 0 mm 6 mps 757 mmHg 71%
20:00 +23°C° 0 mm 6 mps 757 mmHg 78%
21:00 +23°C° 0 mm 6 mps 757 mmHg 79%
22:00 +23°C° 0 mm 6 mps 757 mmHg 80%
23:00 +22°C° 0 mm 7 mps 758 mmHg 81%
Show more